sat.trackr.live / text

‹ back to catalog

STARLINK-4075

NORAD 52670 · 2022-053Q

PAYLOAD ACTIVE UNKNOWN

§ Identity

Operator
Country
US
Launch date
2022-05-18
Launch site
AFETR
Launch vehicle
Mass (kg)
RCS (m²)

Purposes: comms

External: N2YO · Heavens-Above · Gunter

§ Orbital elements

Epoch: 2026-05-24T18:41:45.522240Z

Period
95.44 min
Inclination
53.2128°
Eccentricity
0.0001103
Mean motion
15.08840589 rev/d
Perigee alt
539.0 km
Apogee alt
540.5 km
Semi-major
6,917.9 km
B*
-1.3757e-5
RAAN
172.6122°
Arg perigee
78.2347°
Mean anomaly
281.8769°
Rev number
22,253

§ Raw data

STARLINK-40751 52670U 22053Q   26144.77899910 -.00000507  00000+0 -13757-4 0  99992 52670  53.2128 172.6122 0001103  78.2347 281.8769 15.08840589222533

JSON: /api/v1/satellites/52670 · /tle

For live sub-satellite position, see the globe view (requires WebGL).

§ Visibility from observer

Set your observer location to see the next 7 days of passes ≥ 10°. The values pass through the URL so the page stays shareable.

No JS? Fill the form by hand. The geolocation button needs JavaScript.